Showing default

FLOCK 4H 5, 66708

Orbit data source: Space-Track

FLOCK 4H 5, 66708 is a payload satellite owned by Planet (TW) in SSO that was launched on Fri, 28 Nov 2025 UTC via an FALCON 9 launch vehicle from the Air Force Western Test Range (AFWTR). Payload-class satellites include a variety of spacecraft equipped with specific instruments for various scientific and technological missions. These include communications satellites like Starlink; space stations such as the ISS; scientific satellites like the Hubble; Earth observation satellites from companies like Planet Labs, Umbra, and HawkEye 360; GPS; miniature CubeSats for education and research; and military/defense satellites.

Loading next visibility...
Identifier
66708, 2025-276AU
Orbit
SSO
Country
Flag of TWTW / TWN
Related business
Manufacturer
Planet
Mission
Operational Commercial Imaging
Bus & Motor
CUBESAT 3U, Unknown motor
Mass
5.7 kg wet, 5.7 kg dry
Launch date (UTC)
2025-11-28 (7 months ago)
Launch vehicle
FALCON 9
Launch site
Air Force Western Test Range (AFWTR)
Object type
Payload
Rocket body
Debris
Shape & HBR
Box + 2 Pan, 1.0 m
Radar Cross Section
0.072 m², Medium (>0.1 m² and < 1m²)

Expand to show TLE details & history
Last TLE update: 12 hours ago

TLE from 12 hours ago
0 FLOCK 4H 5
1 66708U 25276AU  26171.46396779  .00004305  00000-0  19937-3 0  9991
2 66708  97.4173 245.1175 0000993  75.1485 284.9860 15.20633080 30936
Epoch: 2026-06-20T11:08Z
TLE epoch observation values (Epoch: 2026-06-20T11:08:06.817Z)
Latitude
-0.00003°
Longitude
169.41088°
Altitude
506.844 km
Speed
7.611 km/s
True Right ascension
16h 20m 28s
True Declination
0° 00' 00"
Sunlit
Object was in full shadow at epoch
Visualization orbit readout
Latitude
Unknown
Longitude
Unknown
Altitude
Unknown
Speed
Unknown
Apparent Right ascension
Unknown
Apparent Declination
Unknown
Sunlit
N/A
Visualization observer readout
Local Sidereal Time
10:18:51
Azimuth
Unknown
Elevation
Unknown
Doppler factor
Unknown
Orbital elements
Apogee altitude
501.578 km
Perigee altitude
500.212 km
Semi-major axis
6,879.032 km
Eccentricity
0.0001
Inclination
97.4173°
RAAN
245.1175°
Arg. of periapsis
75.1485°
True anomaly
284.97501°
Mean anomaly
284.986°
Eccentric anomaly
284.9805°
Mean motion
3.8041 °/min
Orbital period
94.63 mins
BSTAR
0.00019937
Loading maneuver chart data...
Computing Atmospheric mass density...
Loading historical data...
Loading historical data...
Loading historical data...
Loading historical data...
Loading historical data...
Loading historical data...
Loading historical data...

Documentation

Showing up to 5 results
|